FDX1100 KLAX-KAFW

Flight info

Callsign FDX1100
Flight time 2h 12m
Altitude 37000
Route DOTSS2 CLEEE PKE HIDAT KA27O NABOB J74 TXO TURKI WESAT3
Aircraft B77L/H-SDE1E2E3FGHIJ2J3J4J5M1RWXY/LB1D1

Departure

Time 2026-04-23 01:31
Airport Los Angeles International Airport (KLAX)

Arrival

Time 2026-04-23 03:44
Airport Perot Field/Fort Worth Alliance Airport (KAFW)
Time Latitude Longitude Altitude Speed Heading
2026-04-23 01:17 33.93404 -118.38838 125 ft 0 kts 173°
2026-04-23 01:25 33.93425 -118.38841 127 ft 4 kts 173°
2026-04-23 01:26 33.93452 -118.38845 125 ft 4 kts 173°
2026-04-23 01:26 33.93479 -118.38849 125 ft 4 kts 172°
2026-04-23 01:26 33.93505 -118.38853 125 ft 4 kts 169°
2026-04-23 01:26 33.93532 -118.38861 126 ft 4 kts 156°
2026-04-23 01:27 33.93551 -118.38881 125 ft 1 kts 83°
2026-04-23 01:27 33.93551 -118.38882 125 ft 1 kts 83°
2026-04-23 01:28 33.93552 -118.38871 125 ft 8 kts 83°
2026-04-23 01:29 33.93566 -118.38744 125 ft 13 kts 83°
2026-04-23 01:29 33.93577 -118.38632 126 ft 14 kts 83°
2026-04-23 01:29 33.93589 -118.38519 130 ft 14 kts 82°
2026-04-23 01:29 33.93601 -118.38407 128 ft 14 kts 82°
2026-04-23 01:30 33.93612 -118.38321 127 ft 8 kts 76°
2026-04-23 01:30 33.93634 -118.38286 127 ft 5 kts 35°
2026-04-23 01:30 33.93668 -118.38280 125 ft 5 kts 353°
2026-04-23 01:30 33.93710 -118.38293 127 ft 7 kts 335°
2026-04-23 01:31 33.93727 -118.38362 125 ft 11 kts 263°
2026-04-23 01:31 33.93712 -118.38532 126 ft 48 kts 263°
2026-04-23 01:31 33.93624 -118.39373 133 ft 153 kts 264°
2026-04-23 01:31 33.93507 -118.40845 847 ft 185 kts 265°
2026-04-23 01:32 33.93352 -118.42407 1944 ft 189 kts 264°
2026-04-23 01:32 33.93155 -118.44012 2709 ft 203 kts 264°
2026-04-23 01:32 33.92963 -118.45818 3015 ft 234 kts 263°
2026-04-23 01:32 33.92245 -118.47649 3031 ft 254 kts 230°
2026-04-23 01:33 33.90945 -118.49086 3022 ft 253 kts 223°
2026-04-23 01:33 33.89726 -118.50616 3014 ft 251 kts 233°
2026-04-23 01:33 33.88642 -118.52244 3147 ft 252 kts 234°
2026-04-23 01:33 33.87537 -118.53933 3865 ft 259 kts 234°
2026-04-23 01:34 33.86271 -118.55470 4644 ft 266 kts 213°
2026-04-23 01:34 33.84464 -118.56035 5480 ft 278 kts 179°
2026-04-23 01:34 33.82545 -118.55603 6407 ft 283 kts 167°
2026-04-23 01:34 33.80616 -118.55052 7393 ft 288 kts 169°
2026-04-23 01:35 33.78647 -118.54508 8374 ft 293 kts 171°
2026-04-23 01:35 33.76644 -118.53960 9401 ft 297 kts 172°
2026-04-23 01:35 33.74612 -118.53409 10352 ft 303 kts 172°
2026-04-23 01:35 33.72520 -118.52846 10848 ft 324 kts 171°
2026-04-23 01:36 33.70316 -118.51709 11026 ft 363 kts 146°
2026-04-23 01:36 33.68616 -118.49363 11378 ft 394 kts 118°
2026-04-23 01:36 33.67686 -118.46215 12098 ft 407 kts 104°
2026-04-23 01:36 33.66932 -118.42896 12910 ft 417 kts 107°
2026-04-23 01:37 33.66033 -118.39553 13786 ft 424 kts 109°
2026-04-23 01:37 33.65045 -118.36196 14661 ft 429 kts 110°
2026-04-23 01:37 33.64269 -118.32738 15363 ft 433 kts 96°
2026-04-23 01:37 33.64199 -118.29108 15977 ft 440 kts 87°
2026-04-23 01:38 33.64292 -118.25406 16747 ft 447 kts 87°
2026-04-23 01:38 33.64379 -118.21664 17620 ft 452 kts 88°
2026-04-23 01:38 33.64437 -118.17866 18436 ft 458 kts 88°
2026-04-23 01:38 33.64466 -118.14018 19122 ft 464 kts 89°
2026-04-23 01:39 33.64474 -118.10123 19847 ft 470 kts 90°
2026-04-23 01:39 33.64471 -118.06183 20586 ft 474 kts 90°
2026-04-23 01:39 33.64463 -118.02204 21297 ft 480 kts 90°
2026-04-23 01:39 33.64454 -117.98178 21980 ft 485 kts 90°
2026-04-23 01:40 33.64445 -117.94107 22671 ft 490 kts 90°
2026-04-23 01:40 33.64437 -117.89994 23360 ft 495 kts 90°
2026-04-23 01:40 33.64428 -117.85843 23988 ft 501 kts 90°
2026-04-23 01:40 33.64417 -117.81644 24569 ft 505 kts 90°
2026-04-23 01:41 33.64581 -117.77423 25131 ft 508 kts 81°
2026-04-23 01:41 33.65281 -117.73256 25670 ft 512 kts 75°
2026-04-23 01:41 33.66176 -117.69102 26236 ft 516 kts 73°
2026-04-23 01:41 33.67103 -117.64920 26807 ft 520 kts 73°
2026-04-23 01:42 33.68003 -117.60705 27378 ft 524 kts 74°
2026-04-23 01:42 33.68871 -117.56426 27936 ft 529 kts 75°
2026-04-23 01:42 33.69710 -117.52110 28495 ft 533 kts 75°
2026-04-23 01:42 33.70537 -117.47754 29031 ft 537 kts 75°
2026-04-23 01:43 33.71358 -117.43362 29503 ft 541 kts 76°
2026-04-23 01:43 33.72192 -117.38935 30000 ft 545 kts 75°
2026-04-23 01:43 33.73035 -117.34483 30412 ft 549 kts 75°
2026-04-23 01:43 33.73887 -117.29993 30740 ft 554 kts 75°
2026-04-23 01:44 33.74734 -117.25518 31094 ft 558 kts 76°
2026-04-23 01:44 33.75361 -117.20915 31488 ft 562 kts 86°
2026-04-23 01:44 33.75331 -117.16220 31938 ft 562 kts 94°
2026-04-23 01:44 33.75060 -117.11544 32491 ft 561 kts 95°
2026-04-23 01:45 33.74818 -117.06859 32959 ft 562 kts 93°
2026-04-23 01:45 33.74671 -117.02156 33333 ft 565 kts 91°
2026-04-23 01:45 33.74582 -116.97418 33717 ft 567 kts 91°
2026-04-23 01:45 33.74501 -116.92676 34109 ft 569 kts 91°
2026-04-23 01:46 33.74406 -116.87925 34488 ft 569 kts 92°
2026-04-23 01:46 33.74300 -116.83183 35064 ft 564 kts 92°
2026-04-23 01:46 33.74191 -116.78487 35600 ft 561 kts 92°
2026-04-23 01:46 33.74078 -116.73801 35903 ft 563 kts 92°
2026-04-23 01:47 33.73963 -116.69073 36123 ft 567 kts 92°
2026-04-23 01:47 33.73848 -116.64328 36465 ft 567 kts 92°
2026-04-23 01:47 33.73733 -116.59605 36791 ft 567 kts 93°
2026-04-23 01:47 33.73614 -116.54851 36933 ft 572 kts 93°
2026-04-23 01:48 33.73370 -116.45224 36957 ft 582 kts 93°
2026-04-23 01:48 33.73114 -116.35457 36984 ft 589 kts 93°
2026-04-23 01:49 33.72848 -116.25543 37002 ft 597 kts 93°
2026-04-23 01:49 33.72573 -116.15575 36968 ft 597 kts 93°
2026-04-23 01:50 33.72641 -116.05620 36961 ft 597 kts 79°
2026-04-23 01:50 33.75076 -115.96199 36957 ft 590 kts 67°
2026-04-23 01:51 33.77922 -115.86929 36953 ft 591 kts 67°
2026-04-23 01:51 33.80612 -115.77657 36947 ft 592 kts 69°
2026-04-23 01:52 33.83201 -115.68249 36956 ft 592 kts 69°
2026-04-23 01:52 33.85760 -115.58828 36944 ft 592 kts 70°
2026-04-23 01:53 33.88322 -115.49428 36943 ft 591 kts 70°
2026-04-23 01:53 33.90891 -115.40021 36920 ft 591 kts 69°
2026-04-23 01:54 33.93446 -115.30620 36940 ft 590 kts 69°
2026-04-23 01:54 33.95990 -115.21242 36924 ft 589 kts 69°
2026-04-23 01:55 33.98524 -115.11872 36917 ft 589 kts 70°
2026-04-23 01:55 34.01051 -115.02483 36920 ft 588 kts 70°
2026-04-23 01:56 34.03567 -114.93092 36917 ft 589 kts 70°
2026-04-23 01:56 34.06081 -114.83683 36911 ft 589 kts 70°
2026-04-23 01:57 34.08589 -114.74272 36908 ft 590 kts 70°
2026-04-23 01:57 34.11106 -114.64845 36905 ft 590 kts 69°
2026-04-23 01:58 34.13731 -114.55465 36897 ft 590 kts 69°
2026-04-23 01:58 34.16391 -114.46086 36899 ft 590 kts 69°
2026-04-23 01:59 34.19028 -114.36694 36898 ft 590 kts 69°
2026-04-23 01:59 34.21640 -114.27293 36894 ft 590 kts 69°
2026-04-23 02:00 34.24240 -114.17890 36892 ft 590 kts 69°
2026-04-23 02:00 34.26833 -114.08492 36906 ft 590 kts 69°
2026-04-23 02:01 34.29415 -113.99088 36905 ft 589 kts 69°
2026-04-23 02:01 34.32000 -113.89683 36933 ft 589 kts 69°
2026-04-23 02:02 34.34574 -113.80261 36895 ft 590 kts 69°
2026-04-23 02:02 34.37138 -113.70842 36896 ft 589 kts 69°
2026-04-23 02:03 34.39693 -113.61424 36896 ft 588 kts 69°
2026-04-23 02:03 34.42239 -113.52010 36904 ft 588 kts 69°
2026-04-23 02:04 34.44779 -113.42586 36913 ft 588 kts 69°
2026-04-23 02:04 34.47309 -113.33164 36916 ft 588 kts 70°
2026-04-23 02:05 34.49831 -113.23737 36903 ft 588 kts 69°
2026-04-23 02:05 34.52345 -113.14313 36921 ft 588 kts 70°
2026-04-23 02:06 34.54423 -113.06468 36897 ft 588 kts 71°
2026-04-23 02:06 34.55992 -112.96739 36921 ft 589 kts 84°
2026-04-23 02:07 34.56038 -112.85228 36916 ft 588 kts 96°
2026-04-23 02:07 34.55412 -112.76955 36945 ft 588 kts 97°
2026-04-23 02:08 34.54669 -112.67154 36937 ft 587 kts 97°
2026-04-23 02:08 34.53986 -112.57274 36929 ft 588 kts 96°
2026-04-23 02:09 34.53326 -112.47385 37043 ft 588 kts 96°
2026-04-23 02:09 34.52652 -112.37488 37046 ft 589 kts 97°
2026-04-23 02:10 34.51963 -112.27593 37024 ft 589 kts 97°
2026-04-23 02:10 34.51268 -112.17702 36991 ft 589 kts 97°
2026-04-23 02:11 34.50563 -112.07798 36934 ft 590 kts 97°
2026-04-23 02:11 34.49498 -111.97977 36920 ft 586 kts 105°
2026-04-23 02:12 34.47266 -111.88538 36906 ft 582 kts 111°
2026-04-23 02:12 34.44836 -111.79199 36917 ft 581 kts 111°
2026-04-23 02:13 34.42463 -111.69848 36933 ft 581 kts 110°
2026-04-23 02:13 34.40123 -111.60490 36930 ft 580 kts 111°
2026-04-23 02:14 34.37778 -111.51149 37036 ft 580 kts 111°
2026-04-23 02:14 34.35422 -111.41824 37082 ft 579 kts 111°
2026-04-23 02:15 34.33617 -111.32288 37077 ft 585 kts 99°
2026-04-23 02:15 34.33217 -111.27455 37079 ft 586 kts 95°
2026-04-23 02:16 34.33350 -111.17606 37074 ft 587 kts 86°
2026-04-23 02:16 34.33967 -111.07753 36997 ft 587 kts 85°
2026-04-23 02:17 34.34513 -110.97899 36969 ft 588 kts 86°
2026-04-23 02:17 34.34988 -110.88029 36930 ft 588 kts 87°
2026-04-23 02:18 34.35463 -110.78166 36958 ft 587 kts 86°
2026-04-23 02:18 34.35957 -110.68316 36951 ft 586 kts 86°
2026-04-23 02:19 34.36448 -110.58470 36940 ft 586 kts 86°
2026-04-23 02:19 34.36928 -110.48629 36967 ft 585 kts 86°
2026-04-23 02:20 34.37388 -110.38794 37006 ft 585 kts 87°
2026-04-23 02:20 34.37827 -110.28952 37051 ft 585 kts 87°
2026-04-23 02:21 34.38259 -110.19115 37085 ft 585 kts 87°
2026-04-23 02:21 34.38685 -110.09274 37099 ft 585 kts 87°
2026-04-23 02:22 34.39105 -109.99434 37070 ft 586 kts 87°
2026-04-23 02:22 34.39517 -109.89589 37060 ft 586 kts 87°
2026-04-23 02:23 34.39921 -109.79742 37003 ft 586 kts 87°
2026-04-23 02:23 34.40317 -109.69892 36942 ft 585 kts 88°
2026-04-23 02:24 34.40701 -109.60123 36876 ft 585 kts 88°
2026-04-23 02:24 34.41081 -109.50292 36897 ft 584 kts 88°
2026-04-23 02:25 34.41453 -109.40464 36935 ft 584 kts 88°
2026-04-23 02:25 34.41817 -109.30630 36930 ft 585 kts 88°
2026-04-23 02:26 34.42173 -109.20791 36911 ft 585 kts 88°
2026-04-23 02:26 34.42495 -109.10947 36860 ft 585 kts 89°
2026-04-23 02:27 34.42486 -109.01111 36853 ft 584 kts 91°
2026-04-23 02:27 34.42360 -108.91266 36849 ft 584 kts 91°
2026-04-23 02:28 34.42280 -108.81429 36838 ft 584 kts 91°
2026-04-23 02:28 34.42235 -108.71589 36838 ft 584 kts 91°
2026-04-23 02:29 34.42188 -108.61759 36825 ft 583 kts 91°
2026-04-23 02:29 34.42126 -108.51938 36809 ft 583 kts 91°
2026-04-23 02:30 34.42053 -108.42124 36810 ft 583 kts 91°
2026-04-23 02:30 34.41974 -108.32324 36815 ft 581 kts 91°
2026-04-23 02:31 34.41886 -108.22541 36837 ft 580 kts 91°
2026-04-23 02:31 34.41792 -108.12768 36812 ft 580 kts 91°
2026-04-23 02:32 34.41684 -108.03017 36829 ft 579 kts 91°
2026-04-23 02:32 34.41563 -107.93262 36803 ft 579 kts 91°
2026-04-23 02:33 34.41435 -107.83521 36817 ft 578 kts 91°
2026-04-23 02:33 34.41304 -107.73792 36805 ft 579 kts 91°
2026-04-23 02:34 34.41163 -107.64105 36809 ft 579 kts 91°
2026-04-23 02:34 34.41016 -107.54359 36791 ft 578 kts 91°
2026-04-23 02:35 34.40860 -107.44632 36786 ft 578 kts 91°
2026-04-23 02:35 34.40695 -107.34901 36794 ft 578 kts 91°
2026-04-23 02:36 34.40523 -107.25179 36781 ft 578 kts 91°
2026-04-23 02:36 34.40349 -107.15450 36752 ft 578 kts 91°
2026-04-23 02:37 34.40160 -107.05726 36748 ft 577 kts 92°
2026-04-23 02:37 34.39963 -106.96019 36763 ft 577 kts 92°
2026-04-23 02:38 34.39762 -106.86304 36740 ft 577 kts 92°
2026-04-23 02:38 34.39553 -106.76591 36755 ft 577 kts 92°
2026-04-23 02:39 34.39337 -106.66873 36746 ft 577 kts 92°
2026-04-23 02:39 34.39113 -106.57164 36760 ft 577 kts 92°
2026-04-23 02:40 34.38881 -106.47458 36776 ft 576 kts 92°
2026-04-23 02:40 34.38644 -106.37765 36751 ft 576 kts 92°
2026-04-23 02:41 34.38399 -106.28081 36790 ft 575 kts 92°
2026-04-23 02:41 34.38146 -106.18404 36798 ft 575 kts 92°
2026-04-23 02:42 34.37886 -106.08743 36806 ft 574 kts 92°
2026-04-23 02:42 34.37619 -105.99079 36809 ft 574 kts 92°
2026-04-23 02:43 34.37343 -105.89438 36818 ft 572 kts 92°
2026-04-23 02:43 34.37065 -105.79904 36812 ft 569 kts 92°
2026-04-23 02:44 34.36779 -105.70344 36816 ft 567 kts 92°
2026-04-23 02:44 34.36975 -105.60820 36817 ft 565 kts 85°
2026-04-23 02:45 34.37556 -105.51360 36802 ft 562 kts 85°
2026-04-23 02:45 34.38132 -105.41947 36786 ft 560 kts 85°
2026-04-23 02:46 34.38658 -105.32548 36779 ft 558 kts 85°
2026-04-23 02:46 34.39155 -105.23183 36791 ft 557 kts 86°
2026-04-23 02:47 34.39642 -105.13832 36757 ft 556 kts 86°
2026-04-23 02:47 34.40125 -105.04491 36744 ft 555 kts 86°
2026-04-23 02:48 34.40603 -104.95158 36747 ft 555 kts 86°
2026-04-23 02:48 34.41074 -104.85838 36732 ft 554 kts 86°
2026-04-23 02:49 34.41535 -104.76535 36719 ft 553 kts 86°
2026-04-23 02:49 34.41989 -104.67248 36719 ft 552 kts 86°
2026-04-23 02:50 34.42432 -104.58035 36711 ft 551 kts 86°
2026-04-23 02:50 34.42874 -104.48711 36691 ft 551 kts 86°
2026-04-23 02:51 34.43306 -104.39446 36693 ft 551 kts 86°
2026-04-23 02:51 34.43727 -104.30241 36676 ft 551 kts 86°
2026-04-23 02:52 34.44144 -104.20968 36670 ft 551 kts 86°
2026-04-23 02:52 34.44556 -104.11700 36670 ft 551 kts 86°
2026-04-23 02:53 34.44960 -104.02428 36660 ft 551 kts 86°
2026-04-23 02:53 34.45356 -103.93167 36654 ft 551 kts 86°
2026-04-23 02:54 34.45746 -103.83895 36668 ft 550 kts 86°
2026-04-23 02:54 34.46064 -103.76207 36650 ft 550 kts 86°
2026-04-23 02:55 34.46440 -103.66962 36657 ft 549 kts 86°
2026-04-23 02:55 34.46809 -103.57718 36680 ft 549 kts 86°
2026-04-23 02:56 34.47171 -103.48463 36692 ft 549 kts 86°
2026-04-23 02:56 34.47525 -103.39234 36697 ft 548 kts 86°
2026-04-23 02:57 34.47872 -103.30025 36731 ft 547 kts 87°
2026-04-23 02:57 34.48211 -103.20831 36735 ft 546 kts 87°
2026-04-23 02:58 34.48543 -103.11651 36772 ft 545 kts 87°
2026-04-23 02:58 34.48866 -103.02499 36778 ft 543 kts 87°
2026-04-23 02:59 34.49183 -102.93362 36783 ft 542 kts 87°
2026-04-23 02:59 34.49419 -102.84245 36787 ft 541 kts 91°
2026-04-23 03:00 34.48724 -102.75196 36783 ft 539 kts 98°
2026-04-23 03:00 34.47722 -102.66202 36775 ft 538 kts 98°
2026-04-23 03:01 34.46750 -102.57279 36766 ft 537 kts 98°
2026-04-23 03:01 34.45801 -102.48253 36753 ft 536 kts 98°
2026-04-23 03:02 34.44867 -102.39291 36763 ft 536 kts 98°
2026-04-23 03:02 34.43933 -102.30415 36754 ft 534 kts 98°
2026-04-23 03:03 34.42985 -102.21504 36756 ft 532 kts 98°
2026-04-23 03:03 34.42033 -102.12621 36745 ft 532 kts 98°
2026-04-23 03:04 34.41075 -102.03752 36733 ft 531 kts 98°
2026-04-23 03:04 34.40114 -101.94906 36753 ft 529 kts 98°
2026-04-23 03:05 34.39150 -101.86096 36784 ft 527 kts 98°
2026-04-23 03:05 34.38182 -101.77307 36806 ft 526 kts 98°
2026-04-23 03:06 34.37208 -101.68524 36816 ft 526 kts 98°
2026-04-23 03:06 34.36229 -101.59752 36810 ft 527 kts 98°
2026-04-23 03:07 34.35241 -101.50963 36796 ft 527 kts 98°
2026-04-23 03:07 34.34246 -101.42165 36771 ft 528 kts 98°
2026-04-23 03:08 34.33243 -101.33356 36748 ft 529 kts 98°
2026-04-23 03:08 34.32233 -101.24545 36742 ft 530 kts 98°
2026-04-23 03:09 34.31215 -101.15711 36744 ft 530 kts 98°
2026-04-23 03:09 34.30186 -101.06877 36744 ft 531 kts 99°
2026-04-23 03:10 34.28197 -100.98308 36742 ft 529 kts 111°
2026-04-23 03:10 34.25572 -100.90054 36740 ft 530 kts 112°
2026-04-23 03:11 34.22954 -100.81731 36738 ft 530 kts 111°
2026-04-23 03:11 34.20442 -100.73345 36743 ft 531 kts 110°
2026-04-23 03:12 34.17973 -100.64951 36744 ft 531 kts 110°
2026-04-23 03:12 34.15493 -100.56549 36758 ft 531 kts 110°
2026-04-23 03:13 34.12996 -100.48150 36751 ft 532 kts 110°
2026-04-23 03:13 34.10489 -100.39754 36756 ft 532 kts 110°
2026-04-23 03:14 34.07976 -100.31365 36763 ft 532 kts 110°
2026-04-23 03:14 34.05457 -100.22976 36763 ft 532 kts 110°
2026-04-23 03:15 34.02934 -100.14595 36766 ft 533 kts 109°
2026-04-23 03:15 34.00395 -100.06182 36777 ft 535 kts 109°
2026-04-23 03:16 33.97839 -99.97739 36789 ft 537 kts 110°
2026-04-23 03:16 33.93980 -99.85040 36779 ft 539 kts 110°
2026-04-23 03:17 33.91426 -99.76663 36756 ft 519 kts 109°
2026-04-23 03:17 33.90214 -99.72699 36785 ft 503 kts 109°
2026-04-23 03:17 33.89019 -99.68792 36593 ft 492 kts 109°
2026-04-23 03:18 33.87845 -99.64956 36187 ft 487 kts 109°
2026-04-23 03:18 33.86677 -99.61146 35668 ft 485 kts 109°
2026-04-23 03:18 33.85513 -99.57353 35132 ft 483 kts 109°
2026-04-23 03:18 33.84345 -99.53568 34645 ft 481 kts 109°
2026-04-23 03:19 33.83173 -99.49813 34178 ft 479 kts 109°
2026-04-23 03:19 33.82000 -99.46078 33747 ft 476 kts 109°
2026-04-23 03:19 33.80837 -99.42383 33418 ft 469 kts 109°
2026-04-23 03:19 33.79692 -99.38748 33074 ft 462 kts 109°
2026-04-23 03:20 33.78559 -99.35148 32615 ft 459 kts 109°
2026-04-23 03:20 33.77431 -99.31562 32098 ft 458 kts 109°
2026-04-23 03:20 33.76305 -99.27988 31611 ft 456 kts 109°
2026-04-23 03:20 33.75185 -99.24434 31172 ft 453 kts 109°
2026-04-23 03:21 33.74071 -99.20904 30767 ft 450 kts 109°
2026-04-23 03:21 33.72966 -99.17405 30350 ft 447 kts 109°
2026-04-23 03:21 33.71864 -99.13922 29939 ft 445 kts 109°
2026-04-23 03:21 33.70768 -99.10462 29467 ft 442 kts 109°
2026-04-23 03:22 33.69678 -99.07025 29092 ft 437 kts 110°
2026-04-23 03:22 33.68606 -99.03648 28804 ft 429 kts 110°
2026-04-23 03:22 33.67548 -99.00318 28407 ft 425 kts 110°
2026-04-23 03:22 33.66496 -98.97008 27927 ft 423 kts 110°
2026-04-23 03:23 33.65450 -98.93722 27475 ft 422 kts 110°
2026-04-23 03:23 33.64405 -98.90440 27043 ft 419 kts 110°
2026-04-23 03:23 33.63366 -98.87185 26636 ft 416 kts 110°
2026-04-23 03:23 33.62337 -98.83959 26244 ft 413 kts 110°
2026-04-23 03:24 33.61331 -98.80747 25864 ft 410 kts 110°
2026-04-23 03:24 33.60339 -98.77543 25480 ft 408 kts 109°
2026-04-23 03:24 33.59357 -98.74371 25114 ft 405 kts 109°
2026-04-23 03:24 33.58376 -98.71213 24742 ft 402 kts 110°
2026-04-23 03:25 33.57399 -98.68084 24392 ft 400 kts 110°
2026-04-23 03:25 33.56424 -98.64973 24034 ft 397 kts 110°
2026-04-23 03:25 33.55440 -98.61888 23681 ft 395 kts 110°
2026-04-23 03:25 33.54451 -98.58823 23299 ft 393 kts 110°
2026-04-23 03:26 33.53467 -98.55779 22897 ft 390 kts 110°
2026-04-23 03:26 33.52490 -98.52757 22499 ft 387 kts 110°
2026-04-23 03:26 33.51520 -98.49756 22112 ft 384 kts 110°
2026-04-23 03:26 33.50559 -98.46780 21723 ft 382 kts 110°
2026-04-23 03:27 33.49602 -98.43819 21315 ft 380 kts 110°
2026-04-23 03:27 33.48665 -98.40922 20923 ft 378 kts 110°
2026-04-23 03:27 33.47706 -98.37958 20531 ft 375 kts 110°
2026-04-23 03:27 33.46770 -98.35065 20179 ft 372 kts 110°
2026-04-23 03:28 33.45835 -98.32179 19774 ft 371 kts 111°
2026-04-23 03:28 33.44905 -98.29314 19429 ft 367 kts 111°
2026-04-23 03:28 33.43979 -98.26462 18963 ft 368 kts 111°
2026-04-23 03:28 33.43067 -98.23655 18672 ft 363 kts 111°
2026-04-23 03:29 33.42159 -98.20865 18349 ft 359 kts 111°
2026-04-23 03:29 33.41257 -98.18092 18054 ft 354 kts 111°
2026-04-23 03:29 33.40349 -98.15307 17589 ft 353 kts 111°
2026-04-23 03:29 33.39467 -98.12605 17133 ft 353 kts 111°
2026-04-23 03:30 33.38584 -98.09900 16844 ft 347 kts 111°
2026-04-23 03:30 33.37705 -98.07208 16362 ft 349 kts 111°
2026-04-23 03:30 33.36822 -98.04509 15970 ft 346 kts 111°
2026-04-23 03:30 33.35947 -98.01835 15584 ft 345 kts 111°
2026-04-23 03:31 33.35091 -97.99220 15061 ft 332 kts 111°
2026-04-23 03:31 33.34251 -97.96657 14150 ft 330 kts 111°
2026-04-23 03:31 33.33415 -97.94109 13159 ft 331 kts 111°
2026-04-23 03:31 33.32579 -97.91564 12315 ft 324 kts 111°
2026-04-23 03:32 33.31759 -97.89057 11411 ft 321 kts 112°
2026-04-23 03:32 33.30957 -97.86600 10700 ft 314 kts 112°
2026-04-23 03:32 33.30180 -97.84223 10113 ft 301 kts 112°
2026-04-23 03:32 33.29419 -97.81893 9343 ft 296 kts 112°
2026-04-23 03:33 33.28696 -97.79680 8932 ft 280 kts 113°
2026-04-23 03:33 33.27984 -97.77509 8509 ft 281 kts 114°
2026-04-23 03:33 33.27271 -97.75338 8121 ft 280 kts 113°
2026-04-23 03:33 33.26497 -97.73259 7987 ft 268 kts 128°
2026-04-23 03:34 33.25245 -97.71650 7789 ft 264 kts 142°
2026-04-23 03:34 33.23889 -97.70173 7542 ft 263 kts 140°
2026-04-23 03:34 33.22571 -97.68681 7219 ft 260 kts 140°
2026-04-23 03:34 33.21263 -97.67186 6864 ft 259 kts 141°
2026-04-23 03:35 33.20021 -97.65646 6470 ft 258 kts 128°
2026-04-23 03:35 33.19418 -97.63600 5969 ft 269 kts 97°
2026-04-23 03:35 33.19418 -97.61400 5656 ft 263 kts 92°
2026-04-23 03:35 33.19438 -97.59225 5281 ft 261 kts 94°
2026-04-23 03:36 33.19451 -97.57075 5003 ft 255 kts 94°
2026-04-23 03:36 33.19462 -97.54984 4736 ft 250 kts 95°
2026-04-23 03:36 33.19466 -97.52933 4393 ft 246 kts 95°
2026-04-23 03:36 33.19469 -97.50915 3952 ft 246 kts 96°
2026-04-23 03:37 33.19470 -97.48886 3555 ft 241 kts 96°
2026-04-23 03:37 33.19474 -97.46942 3259 ft 229 kts 97°
2026-04-23 03:37 33.19479 -97.45088 3189 ft 221 kts 97°
2026-04-23 03:37 33.19476 -97.43268 3155 ft 219 kts 98°
2026-04-23 03:38 33.19479 -97.41449 3103 ft 219 kts 97°
2026-04-23 03:38 33.19480 -97.39650 3061 ft 215 kts 98°
2026-04-23 03:38 33.19370 -97.37917 2992 ft 200 kts 115°
2026-04-23 03:38 33.18643 -97.36671 2921 ft 173 kts 144°
2026-04-23 03:39 33.17671 -97.35935 2868 ft 160 kts 162°
2026-04-23 03:39 33.16609 -97.35671 2821 ft 156 kts 171°
2026-04-23 03:39 33.15527 -97.35443 2768 ft 160 kts 170°
2026-04-23 03:39 33.14426 -97.35210 2712 ft 161 kts 170°
2026-04-23 03:40 33.13338 -97.34982 2648 ft 156 kts 170°
2026-04-23 03:40 33.12277 -97.34761 2586 ft 155 kts 170°
2026-04-23 03:40 33.11574 -97.34616 2545 ft 152 kts 170°
2026-04-23 03:40 33.10577 -97.34412 2501 ft 138 kts 170°
2026-04-23 03:41 33.09690 -97.34229 2442 ft 121 kts 170°
2026-04-23 03:41 33.08882 -97.34063 2334 ft 117 kts 169°
2026-04-23 03:41 33.08080 -97.33899 2189 ft 119 kts 168°
2026-04-23 03:41 33.07256 -97.33728 2054 ft 122 kts 170°
2026-04-23 03:42 33.06409 -97.33546 1911 ft 121 kts 168°
2026-04-23 03:42 33.05592 -97.33384 1798 ft 119 kts 170°
2026-04-23 03:42 33.04753 -97.33248 1680 ft 123 kts 171°
2026-04-23 03:42 33.03890 -97.33079 1438 ft 129 kts 165°
2026-04-23 03:43 33.02993 -97.32840 1278 ft 138 kts 168°
2026-04-23 03:43 33.02026 -97.32673 1166 ft 141 kts 169°
2026-04-23 03:43 33.01069 -97.32470 900 ft 137 kts 168°
2026-04-23 03:43 33.00159 -97.32272 744 ft 126 kts 168°
2026-04-23 03:44 32.99408 -97.32117 720 ft 65 kts 170°
2026-04-23 03:44 32.99218 -97.32043 721 ft 19 kts 115°
2026-04-23 03:44 32.99231 -97.31887 720 ft 16 kts 79°
2026-04-23 03:44 32.99251 -97.31752 719 ft 17 kts 79°
2026-04-23 03:45 32.99269 -97.31638 721 ft 10 kts 79°
2026-04-23 03:45 32.99292 -97.31585 724 ft 7 kts 34°
2026-04-23 03:45 32.99343 -97.31578 722 ft 8 kts 355°
2026-04-23 03:45 32.99369 -97.31620 726 ft 6 kts 276°
2026-04-23 03:46 32.99371 -97.31646 725 ft 0 kts 263°